Grafton, IL

12:04 AM CST on January 18, 2017 (GMT -0600)
Saint Charles County Smartt

Weather History for KSET - August, 2013

Change the Weather History Date:

Saturday, August 24, 2013

  Actual Average (KSTL) Record (KSTL)
Temperature  
Mean Temperature 77 °F -  
Max Temperature 90 °F 86 °F 103 °F (1947)
Min Temperature 64 °F 66 °F 51 °F (1942)
Cooling Degree Days 12    
Growing Degree Days 27 (Base 50)    
Moisture  
Dew Point 66 °F    
Average Humidity 81    
Maximum Humidity 100    
Minimum Humidity 46    
Precipitation  
Precipitation 0.00 in - - ()
Sea Level Pressure  
Sea Level Pressure 30.16 in    
Wind  
Wind Speed 3 mph (East)    
Max Wind Speed 10 mph    
Max Gust Speed -    
Visibility 6 miles    
Events      
Averages and records for this station are not official NWS values.
T = Trace of Precipitation, MM = Missing Value Source: NWS Daily Summary

Daily Weather History Graph

Daily Weather History Graph

Search for Another Location

Airport or City:

Trip Planner

Search our weather history database for the weather conditions in past years. The results will help you decide how hot, cold, wet, or windy it might be!

Date:

Astronomy

Aug. 24, 2013 Rise Set
Actual Time 6:23 AM CDT 7:43 PM CDT
Civil Twilight 5:55 AM CDT 8:11 PM CDT
Nautical Twilight 5:22 AM CDT 8:44 PM CDT
Astronomical Twilight 4:47 AM CDT 9:19 PM CDT
Moon 9:40 PM CDT (8/24) 10:20 AM CDT (8/24)
Length of Visible Light 14h 15m
Length of Day
13h 20m
Waning Gibbous, 84% of the Moon is Illuminated
Aug 24
Waning Gibbous
Aug 28
Last Quarter
Sep 5
New
Sep 12
First Quarter
Sep 19
Full

Hourly Weather History & Observations

Time (CDT) Temp. Heat Index Dew Point Humidity Pressure Visibility Wind Dir Wind Speed Gust Speed Precip Events Conditions
12:54 AM 71.1 °F - 66.9 °F 87% 30.10 in 9.0 mi East 3.5 mph - N/A   Clear
1:54 AM 70.0 °F - 66.9 °F 90% 30.10 in 8.0 mi East 4.6 mph - N/A   Clear
2:54 AM 69.1 °F - 66.0 °F 90% 30.12 in 8.0 mi East 3.5 mph - N/A   Clear
3:54 AM 68.0 °F - 64.9 °F 90% 30.13 in 9.0 mi Calm Calm - N/A   Clear
4:54 AM 68.0 °F - 66.0 °F 93% 30.14 in 6.0 mi Calm Calm - N/A   Clear
5:04 AM 66.2 °F - 66.2 °F 100% 30.15 in 0.8 mi Calm Calm - N/A   Mist
5:15 AM 66.2 °F - 66.2 °F 100% 30.16 in 1.0 mi Calm Calm - N/A   Clear
5:18 AM 66.2 °F - 64.4 °F 94% 30.16 in 4.0 mi Calm Calm - N/A   Clear
5:31 AM 66.2 °F - 64.4 °F 94% 30.16 in 1.8 mi East 3.5 mph - N/A   Clear
5:41 AM 66.2 °F - 64.4 °F 94% 30.16 in 0.8 mi Calm Calm - N/A   Clear
5:47 AM 66.2 °F - 64.4 °F 94% 30.16 in 2.0 mi Calm Calm - N/A   Clear
5:54 AM 64.9 °F - 64.0 °F 97% 30.15 in 7.0 mi Calm Calm - N/A   Clear
5:58 AM 64.4 °F - 64.4 °F 100% 30.16 in 0.8 mi Calm Calm - N/A   Clear
6:19 AM 66.2 °F - 64.4 °F 94% 30.17 in 2.0 mi Calm Calm - N/A   Clear
6:26 AM 64.4 °F - 64.4 °F 100% 30.17 in 4.0 mi Calm Calm - N/A   Clear
6:54 AM 66.0 °F - 64.0 °F 93% 30.17 in 2.5 mi Calm Calm - N/A   Clear
7:01 AM 66.2 °F - 64.4 °F 94% 30.18 in 1.2 mi Calm Calm - N/A   Partly Cloudy
7:11 AM 66.2 °F - 66.2 °F 100% 30.18 in 1.5 mi Calm Calm - N/A   Mostly Cloudy
7:19 AM 68.0 °F - 66.2 °F 94% 30.19 in 3.0 mi Calm Calm - N/A   Scattered Clouds
7:54 AM 71.1 °F - 68.0 °F 90% 30.18 in 6.0 mi Calm Calm - N/A   Clear
8:54 AM 73.9 °F - 69.1 °F 85% 30.19 in 8.0 mi East 4.6 mph - N/A   Clear
9:54 AM 78.1 °F - 70.0 °F 76% 30.19 in 9.0 mi ESE 4.6 mph - N/A   Clear
10:54 AM 82.0 °F 85.9 °F 70.0 °F 67% 30.19 in 10.0 mi East 5.8 mph - N/A   Clear
11:54 AM 84.9 °F 88.8 °F 69.1 °F 59% 30.19 in 10.0 mi East 6.9 mph - N/A   Clear
12:54 PM 86.0 °F 90.1 °F 69.1 °F 57% 30.17 in 10.0 mi East 8.1 mph - N/A   Clear
1:54 PM 88.0 °F 91.4 °F 68.0 °F 51% 30.17 in 10.0 mi East 5.8 mph - N/A   Clear
2:54 PM 89.1 °F 92.1 °F 66.9 °F 48% 30.15 in 10.0 mi East 5.8 mph - N/A   Clear
3:54 PM 90.0 °F 92.8 °F 66.9 °F 46% 30.14 in 10.0 mi East 8.1 mph - N/A   Clear
4:54 PM 89.1 °F 91.3 °F 66.0 °F 46% 30.13 in 10.0 mi ESE 10.4 mph - N/A   Clear
5:54 PM 87.1 °F 89.2 °F 66.0 °F 49% 30.13 in 10.0 mi ESE 9.2 mph - N/A   Clear
6:54 PM 84.0 °F 87.0 °F 68.0 °F 58% 30.13 in 10.0 mi ESE 6.9 mph - N/A   Clear
7:54 PM 77.0 °F - 66.9 °F 71% 30.14 in 10.0 mi ESE 6.9 mph - N/A   Clear
8:54 PM 72.0 °F - 66.9 °F 84% 30.15 in 9.0 mi East 6.9 mph - N/A   Clear
9:54 PM 73.0 °F - 66.0 °F 79% 30.17 in 10.0 mi ESE 5.8 mph - N/A   Clear
10:54 PM 72.0 °F - 66.0 °F 81% 30.17 in 9.0 mi East 4.6 mph - N/A   Clear
11:54 PM 68.0 °F - 64.0 °F 87% 30.18 in 8.0 mi East 5.8 mph - N/A   Clear